Weather History for KBRO - January, 2013

Change the Weather History Date:

Wednesday, January 16, 2013

  Actual Average Record
Temperature  
Mean Temperature 49 °F 61 °F  
Max Temperature 60 °F 70 °F 83 °F (1895)
Min Temperature 37 °F 51 °F 21 °F (1888)
Degree Days  
Heating Degree Days 16 6  
Month to date heating degree days 137 96  
Since 1 July heating degree days 217 315  
Cooling Degree Days 0 2  
Month to date cooling degree days 17 32  
Year to date cooling degree days 17 32  
Moisture  
Dew Point 28 °F    
Average Humidity 51    
Maximum Humidity 79    
Minimum Humidity 23    
Precipitation  
Precipitation 0.00 in 0.04 in 2.28 in (1988)
Month to date precipitation 1.48 0.59  
Year to date precipitation 1.48 0.59  
Sea Level Pressure  
Sea Level Pressure 30.31 in    
Wind  
Wind Speed 11 mph (NNW)    
Max Wind Speed 23 mph    
Max Gust Speed 33 mph    
Visibility 10 miles    
Events      
T = Trace of Precipitation, MM = Missing Value Source: NWS Daily Summary

Daily Weather History Graph

Daily Weather History Graph

Search for Another Location

Airport or City:

Trip Planner

Search our weather history database for the weather conditions in past years. The results will help you decide how hot, cold, wet, or windy it might be!

Date:

Astronomy

Jan. 16, 2013 Rise Set
Actual Time 7:18 AM CST 6:01 PM CST
Civil Twilight 6:53 AM CST 6:25 PM CST
Nautical Twilight 6:25 AM CST 6:54 PM CST
Astronomical Twilight 5:57 AM CST 7:21 PM CST
Moon 10:31 AM CST (1/16) 11:13 PM CST (1/16)
Length of Visible Light 11h 32m
Length of Day
10h 43m
Waxing Crescent, 28% of the Moon is Illuminated
Jan 16
Waxing Crescent
Jan 18
First Quarter
Jan 26
Full
Feb 3
Last Quarter
Feb 10
New

Hourly Weather History & Observations

Time (CST) Temp. Windchill Dew Point Humidity Pressure Visibility Wind Dir Wind Speed Gust Speed Precip Events Conditions
12:53 AM 44.1 °F 37.1 °F 37.0 °F 76% 30.24 in 10.0 mi NNW 15.0 mph 19.6 mph N/A   Overcast
1:53 AM 45.0 °F 38.5 °F 36.0 °F 71% 30.24 in 10.0 mi NNW 13.8 mph 21.9 mph N/A   Overcast
2:53 AM 45.0 °F 37.4 °F 36.0 °F 71% 30.25 in 10.0 mi NNW 18.4 mph 25.3 mph N/A   Overcast
3:53 AM 44.1 °F 37.7 °F 35.1 °F 71% 30.26 in 10.0 mi NNW 12.7 mph 24.2 mph N/A   Overcast
4:53 AM 44.1 °F 36.8 °F 33.1 °F 65% 30.28 in 10.0 mi NW 16.1 mph 24.2 mph N/A   Overcast
5:53 AM 44.1 °F 37.4 °F 30.9 °F 60% 30.30 in 10.0 mi NNW 13.8 mph 21.9 mph N/A   Overcast
6:53 AM 43.0 °F 35.4 °F 28.9 °F 58% 30.32 in 10.0 mi NNW 16.1 mph 21.9 mph N/A   Overcast
7:53 AM 43.0 °F 34.8 °F 27.0 °F 53% 30.35 in 10.0 mi NNW 18.4 mph 23.0 mph N/A   Overcast
8:53 AM 43.0 °F 36.4 °F 26.1 °F 51% 30.37 in 10.0 mi NNW 12.7 mph - N/A   Overcast
9:53 AM 44.1 °F 37.7 °F 21.9 °F 42% 30.39 in 10.0 mi NNW 12.7 mph 24.2 mph N/A   Overcast
10:53 AM 51.1 °F - 23.0 °F 33% 30.37 in 10.0 mi NNW 20.7 mph 27.6 mph N/A   Partly Cloudy
11:53 AM 54.0 °F - 23.0 °F 30% 30.34 in 10.0 mi North 17.3 mph 28.8 mph N/A   Clear
12:53 PM 57.0 °F - 21.9 °F 26% 30.31 in 10.0 mi North 16.1 mph 27.6 mph N/A   Clear
1:53 PM 57.9 °F - 21.9 °F 25% 30.28 in 10.0 mi NNW 16.1 mph 24.2 mph N/A   Clear
2:53 PM 57.9 °F - 23.0 °F 26% 30.26 in 10.0 mi NNW 15.0 mph 23.0 mph N/A   Clear
3:53 PM 57.9 °F - 19.9 °F 23% 30.25 in 10.0 mi NW 11.5 mph 20.7 mph N/A   Clear
4:53 PM 57.0 °F - 19.0 °F 23% 30.27 in 10.0 mi NW 16.1 mph 23.0 mph N/A   Clear
5:53 PM 55.0 °F - 19.9 °F 25% 30.29 in 10.0 mi NNW 5.8 mph - N/A   Clear
6:53 PM 48.9 °F - 33.1 °F 54% 30.31 in 10.0 mi Calm Calm - N/A   Clear
7:53 PM 44.1 °F - 33.1 °F 65% 30.33 in 10.0 mi Calm Calm - N/A   Clear
8:53 PM 42.1 °F - 33.1 °F 70% 30.34 in 10.0 mi Calm Calm - N/A   Clear
9:53 PM 41.0 °F - 33.1 °F 73% 30.34 in 10.0 mi Calm Calm - N/A   Clear
10:53 PM 39.9 °F - 34.0 °F 79% 30.35 in 10.0 mi Calm Calm - N/A   Clear
11:53 PM 39.9 °F - 34.0 °F 79% 30.35 in 8.0 mi Calm Calm - N/A   Clear